Location: Unspecified
(34.4500°N, 0.0000°E)
Time: 16:16:02
(UTC+00:00)

CUBEBUG 2 - Visible Passes

Search period start: 14 May 2021 00:00
Search period end: 24 May 2021 00:00
Orbit: 585 x 697 km, 97.7° (Epoch: 13 May)

Date Brightness Start Highest point End Pass type
(mag) Time Alt. Az. Time Alt. Az. Time Alt. Az.
14 May ? 02:42:33 10° NE 02:45:25 16° E 02:48:17 10° SE visible
14 May ? 04:17:39 10° N 04:22:04 43° WNW 04:26:32 10° SW visible
15 May ? 03:05:18 10° NE 03:09:23 29° E 03:13:29 10° SSE visible
16 May ? 03:28:40 10° NNE 03:33:17 54° E 03:37:54 10° S visible
17 May ? 03:52:22 10° N 03:57:06 82° WNW 04:01:51 10° SSW visible
18 May ? 02:41:20 10° NE 02:44:11 16° E 02:47:01 10° SE visible
18 May ? 04:16:23 10° N 04:20:52 44° WNW 04:25:20 10° SW visible
19 May ? 03:04:04 10° NE 03:08:09 28° E 03:12:13 10° SSE visible
20 May ? 03:27:25 10° NNE 03:32:03 53° E 03:36:40 10° S visible
21 May ? 03:51:07 10° N 03:55:52 83° WNW 04:00:36 10° SSW visible
22 May ? 02:40:07 10° ENE 02:42:55 15° E 02:45:42 10° SE visible
22 May ? 04:15:07 10° N 04:19:37 44° WNW 04:24:06 10° SW visible
23 May ? 03:02:49 10° NE 03:06:54 28° E 03:10:56 10° SSE visible
